Regional Weather Roundup
Issued by NWS Sterling, VA

Home | Current Version | Previous Version | Text Only | Print | Product List | Glossary Off
Versions: 1 2 3 4 5 6 7 8 9 10 11 12 13 14 15 16 17 18 19 20 21 22 23 24 25 26 27 28 29 30 31 32 33 34 35 36 37 38 39 40 41 42 43 44 45 46 47 48 49 50

000
ASUS41 KLWX 292011
RWRLWX

REGIONAL WEATHER ROUNDUP
NATIONAL WEATHER SERVICE BALTIMORE MD/WASHINGTON DC
400 PM EDT WED MAR 29 2017

Note: "FAIR" indicates few or no clouds below 12,000 feet
with no significant weather and/or obstructions to visibility.
 TC=TEMPERATURE CELSIUS

 * =Non NWS site. Station does not report precipitation (e.g. rain,
    snow, etc.), thunder, or fog.

DCZ001-MDZ009-015-VAZ040>042-051-053>054-292100-
WASHINGTON METRO

CITY           SKY/WX    TMP DP  RH WIND       PRES   REMARKS
WASHINGTON NAT MOSUNNY   66  37  34 N10       30.09F
DULLES         MOSUNNY   64  38  38 N8        30.09F
ANDREWS AFB    SUNNY     64  35  35 N7        30.07F
FT BELVOIR     SUNNY     66  38  36 VRB5      30.08F
QUANTICO       MOSUNNY   63  46  54 E10       30.08F
COLLEGE PARK*  SUNNY     63  33  32 NE9       30.09S
LEESBURG*      SUNNY     64  39  39 N9        30.10F
MANASSAS*      SUNNY     65  38  36 N9        30.09F

$$

MDZ006>007-011-014-292100-
BALTIMORE METRO

CITY           SKY/WX    TMP DP  RH WIND       PRES   REMARKS
BWI AIRPORT    MOSUNNY   63  31  30 NE10      30.08F
MD SCIENCE CTR   N/A     63  31  30 MISG      30.09F
MARTIN STATE   SUNNY     63  37  39 NW14      30.10F
ANNAPOLIS      SUNNY     62  37  39 VRB7G16   30.08F
FORT MEADE*    SUNNY     63  32  31 N9        30.11S

$$

MDZ012-015-019>023-292100-
MARYLAND EASTERN SHORE

CITY           SKY/WX    TMP DP  RH WIND       PRES   REMARKS
OCEAN CITY     SUNNY     55  38  52 NE12      30.07F
SALISBURY      SUNNY     64  36  35 N8        30.06F
BAY BRIDGE AP* SUNNY     61  36  39 N9        30.09F
CAMBRIDGE*     SUNNY     61  36  39 N12G18    30.08F
EASTON*        SUNNY     63  36  36 NW13      30.12F

$$

MDZ017>025-292100-
SOUTHERN MARYLAND

CITY           SKY/WX    TMP DP  RH WIND       PRES   REMARKS
PATUXENT RIVER MOSUNNY   61  40  45 N12       30.08F
ST INIGOES     NOT AVBL
LEONARDTOWN*   SUNNY     61  36  39 NE7       30.09F

$$

MDZ003>005-292100-
NORTH CENTRAL MARYLAND

CITY           SKY/WX    TMP DP  RH WIND       PRES   REMARKS
FREDERICK*     SUNNY     64  43  45 NE6       30.12F
HAGERSTOWN APT SUNNY     61  35  37 N9        30.10F
WESTMINSTER*   SUNNY     61  37  41 NE9       30.10F

$$

MDZ501>502-292100-
WESTERN MARYLAND

CITY           SKY/WX    TMP DP  RH WIND       PRES   REMARKS
OAKLAND*       SUNNY     52  32  46 NW6       30.13R
CUMBERLAND*    SUNNY     66  32  28 W8        30.13S

$$

VAZ025>031-292100-
SHENANDOAH VALLEY

CITY           SKY/WX    TMP DP  RH WIND       PRES   REMARKS
WINCHESTER*    SUNNY     61  34  36 E7        30.09F
FRONT ROYAL*   NOT AVBL
LURAY*         NOT AVBL
NEW MARKET*    SUNNY     64  39  39 CALM      30.07F
STAUNTON*      SUNNY     65  42  43 E6        30.08F
WAYNESBORO*    NOT AVBL

$$

WVZ021-048>050-054>055-292100-
EASTERN WEST VIRGINIA PANHANDLE

CITY           SKY/WX    TMP DP  RH WIND       PRES   REMARKS
MARTINSBURG    SUNNY     64  36  35 N8        30.09F
PETERSBURG*    SUNNY     65  43  43 E7        30.10S

$$

VAZ036>039-050-292100-
CENTRAL FOOTHILLS

CITY           SKY/WX    TMP DP  RH WIND       PRES   REMARKS
CHARLOTTESVILL MOSUNNY   71  45  39 NE9       30.06S
CULPEPER*      SUNNY     67  38  35 N8        30.09S
ORANGE*        SUNNY     64  41  42 NE7       30.09S
GORDONSVILLE*  SUNNY     67  44  42 NE5       30.07S
WARRENTON*     SUNNY     67  32  26 NE10      30.08F

$$

VAZ055>057-292100-
NORTH AND CENTRAL PIEDMONT

CITY           SKY/WX    TMP DP  RH WIND       PRES   REMARKS
FREDERICKSBRG* SUNNY     68  42  38 NW7G16    30.06F
STAFFORD*      SUNNY     65  37  35 N7        30.11F

$$

NCZ024-NYZ072-PAZ021-071-VAZ022-071-292100-
OTHER REGIONAL OBSERVATIONS

CITY           SKY/WX    TMP DP  RH WIND       PRES   REMARKS
NEW YORK CITY  SUNNY     58  29  33 NW10G21   30.06S
PHILADELPHIA   SUNNY     61  32  33 N16G22    30.07F
PITTSBURGH     MOSUNNY   59  34  39 NW10      30.16S
ROANOKE        MOSUNNY   73  45  36 VRB3      30.04F
RICHMOND       MOSUNNY   69  45  41 NW10      30.07S
RALEIGH        PTSUNNY   72  51  47 VRB3      30.05F

$$

ANZ530>537-292100-
MARINE OBSERVATIONS

STATION/POSITION TIME  TEMP    WIND        PRES
                       AIR SEA DIR/SP/G
                 (UTC) (F)     (DEG/KT/KT) (MB)
THOMAS PT LIGHT  2000   54 48   50/ 13/ 13   N/A
BALT KEY BRIDGE  1948   59     320/  6/  7 1018.9F
COVE POINT       1948   54      40/  7/  9 1019.2F
LEWISETTA        1948   56 54   80/  7/  8 1018.4F
SOLOMONS ISLAND  1948   59 50   20/  7/ 12   N/A
PINEY POINT      1948          160/  8/  8   N/A

$$




USA.gov is the U.S. government's official web portal to all federal, state and local government web resources and services.